Brainerd, MN

9:00 PM CDT on October 22, 2019 (GMT -0500)
Brainerd-Crow Wing County Regional

Weather History for KBRD - September, 2019

Change the Weather History Date:

Thursday, September 19, 2019

  Actual Average Record
Temperature  
Mean Temperature 70 °F 57 °F  
Max Temperature 84 °F 67 °F 88 °F (1940)
Min Temperature 57 °F 45 °F 28 °F (1991)
Degree Days  
Heating Degree Days 0 9  
Month to date heating degree days 66 111  
Since 1 July heating degree days 103 172  
Cooling Degree Days 6 1  
Month to date cooling degree days 42 27  
Year to date cooling degree days 467 418  
Growing Degree Days 20 (Base 50)    
Moisture  
Dew Point 58 °F    
Average Humidity 80    
Maximum Humidity 94    
Minimum Humidity 44    
Precipitation  
Precipitation 0.00 in 0.10 in 1.06 in (1987)
Month to date precipitation 3.29 2.02  
Year to date precipitation 25.29 21.94  
Snow  
Snow 0.00 in 0.00 in 0.00 in (2017)
Month to date snowfall 0.0 0.0  
Since 1 July snowfall T 0.0  
Since 1 September snowfall 0.0 0.0  
Snow Depth 0.00 in    
Sea Level Pressure  
Sea Level Pressure 29.97 in    
Wind  
Wind Speed 3 mph ()    
Max Wind Speed 9 mph    
Max Gust Speed 10 mph    
Visibility 3.8 miles    
Events Fog    
T = Trace of Precipitation, MM = Missing Value Source: Averaged Metar Reports

Daily Weather History Graph

Daily Weather History Graph

Search for Another Location

Airport or City:

Astronomy

Sep. 19, 2019 Rise Set
Actual Time 6:59 AM CDT 7:20 PM CDT
Civil Twilight 6:29 AM CDT 7:50 PM CDT
Nautical Twilight 5:53 AM CDT 8:26 PM CDT
Astronomical Twilight 5:16 AM CDT 9:02 PM CDT
Moon 10:12 PM CDT (9/19) 12:20 PM CDT (9/19)
Length of Visible Light 13h 21m
Length of Day
12h 21m
Waning Gibbous, 74% of the Moon is Illuminated
Sep 19
Waning Gibbous
Sep 21
Last Quarter
Sep 28
New
Oct 5
First Quarter
Oct 13
Full

Hourly Weather History & Observations

Time (CDT) Temp. Heat Index Dew Point Humidity Pressure Visibility Wind Dir Wind Speed Gust Speed Precip Events Conditions
12:53 AM 64.9 °F - 60.1 °F 84% 29.92 in 7.0 mi SW 5.8 mph - N/A   Clear
1:53 AM 64.9 °F - 59.0 °F 81% 29.93 in 7.0 mi SSW 6.9 mph - N/A   Clear
2:53 AM 63.0 °F - 57.9 °F 84% 29.92 in 6.0 mi South 4.6 mph - N/A   Haze
3:53 AM 61.0 °F - 57.0 °F 87% 29.93 in 5.0 mi SSW 4.6 mph - N/A   Clear
4:22 AM 61.0 °F - 57.0 °F 87% 29.94 in 2.5 mi Calm Calm - N/A   Clear
4:30 AM 60.1 °F - 57.0 °F 90% 29.93 in 3.0 mi Calm Calm - N/A   Clear
4:34 AM 61.0 °F - 57.9 °F 90% 29.93 in 1.8 mi Calm Calm - N/A   Clear
4:37 AM 61.0 °F - 57.9 °F 90% 29.92 in 0.8 mi Calm Calm - N/A   Clear
4:45 AM 61.0 °F - 57.9 °F 90% 29.93 in 0.2 mi Calm Calm - N/A Fog Fog
4:53 AM 60.1 °F - 57.0 °F 90% 29.92 in 0.2 mi Calm Calm - N/A Fog Fog
5:04 AM 60.1 °F - 55.9 °F 86% 29.94 in 0.8 mi South 9.2 mph - N/A   Clear
5:06 AM 61.0 °F - 57.0 °F 87% 29.94 in 1.5 mi South 8.1 mph - N/A   Clear
5:09 AM 61.0 °F - 57.0 °F 87% 29.94 in 3.0 mi SSW 4.6 mph - N/A   Clear
5:38 AM 60.1 °F - 57.0 °F 90% 29.92 in 2.5 mi Calm Calm - N/A   Clear
5:53 AM 60.1 °F - 57.0 °F 90% 29.93 in 3.0 mi Calm Calm - N/A   Clear
6:02 AM 60.1 °F - 57.0 °F 90% 29.94 in 1.8 mi Calm Calm - N/A   Clear
6:07 AM 60.1 °F - 57.0 °F 90% 29.93 in 0.5 mi Calm Calm - N/A Fog Fog
6:11 AM 59.0 °F - 55.9 °F 90% 29.94 in 0.2 mi Calm Calm - N/A Fog Fog
6:23 AM 57.9 °F - 55.0 °F 90% 29.95 in 0.5 mi SSE 4.6 mph - N/A Fog Fog
6:31 AM 59.0 °F - 55.0 °F 87% 29.95 in 1.5 mi Calm Calm - N/A   Clear
6:45 AM 59.0 °F - 55.9 °F 90% 29.96 in 3.0 mi Calm Calm - N/A   Clear
6:53 AM 60.1 °F - 55.9 °F 86% 29.96 in 4.0 mi Calm Calm - N/A   Partly Cloudy
6:59 AM 57.9 °F - 55.0 °F 90% 29.97 in 0.5 mi Calm Calm - N/A Fog Fog
7:06 AM 57.0 °F - 55.0 °F 93% 29.97 in 0.2 mi Calm Calm - N/A Fog Fog
7:49 AM 57.2 °F - 55.4 °F 94% 30.01 in 0.5 mi SSW 5.8 mph - N/A Fog Fog
7:53 AM 57.9 °F - 55.0 °F 90% 30.01 in 1.8 mi SSW 4.6 mph - N/A   Clear
7:56 AM 57.9 °F - 55.0 °F 90% 30.01 in 3.0 mi South 3.5 mph - N/A   Clear
8:53 AM 64.9 °F - 60.1 °F 84% 30.02 in 5.0 mi Calm Calm - N/A   Haze
9:53 AM 71.1 °F - 61.0 °F 70% 30.01 in 6.0 mi NNW 4.6 mph - N/A   Haze
10:53 AM 73.9 °F - 63.0 °F 68% 30.00 in 6.0 mi Calm Calm - N/A   Haze
11:53 AM 77.0 °F - 62.1 °F 60% 30.01 in 6.0 mi Calm Calm - N/A   Haze
12:53 PM 80.1 °F 81.2 °F 62.1 °F 54% 30.00 in 6.0 mi Variable 5.8 mph - N/A   Haze
1:53 PM 80.1 °F 80.7 °F 59.0 °F 48% 29.99 in 7.0 mi Calm Calm - N/A   Clear
2:53 PM 82.9 °F 83.3 °F 61.0 °F 47% 29.99 in 6.0 mi West 5.8 mph - N/A   Haze
3:53 PM 84.0 °F 84.0 °F 60.1 °F 44% 29.98 in 7.0 mi NW 3.5 mph - N/A   Clear
4:53 PM 84.0 °F 84.4 °F 61.0 °F 46% 29.98 in 7.0 mi Variable 4.6 mph - N/A   Clear
5:53 PM 82.0 °F 83.0 °F 62.1 °F 51% 29.98 in 7.0 mi NE 4.6 mph - N/A   Clear
6:53 PM 77.0 °F - 63.0 °F 62% 29.98 in 6.0 mi ENE 3.5 mph - N/A   Haze
7:53 PM 70.0 °F - 64.0 °F 81% 30.01 in 6.0 mi Calm Calm - N/A   Haze
8:53 PM 68.0 °F - 63.0 °F 84% 30.02 in 6.0 mi Calm Calm - N/A   Haze
9:53 PM 66.9 °F - 61.0 °F 81% 30.02 in 6.0 mi Calm Calm - N/A   Haze
10:53 PM 68.0 °F - 61.0 °F 78% 30.02 in 7.0 mi East 4.6 mph - N/A   Clear
11:53 PM 68.0 °F - 61.0 °F 78% 30.02 in 7.0 mi ENE 4.6 mph - N/A   Clear